Tracking 19717 objects as of 25-Jun-2019
HD Live streaming from Space Station
objects crossing your sky now

THORAD AGENA D DEB

Track THORAD AGENA D DEB now!
10-day predictions


NORAD ID: 5690
Int'l Code: 1970-025LV
Perigee: 1,040.4 km
Apogee: 1,111.9 km
Inclination: 99.9 °
Period: 106.6 minutes
Semi major axis: 7447 km
RCS: 0.0072 m2 (small)
Launch date: April 8, 1970
Source: United States (US)
Launch site: AIR FORCE WESTERN TEST RANGE (AFWTR)

Note: This is SATELLITE DEBRIS
aabbcc
Your satellite tracking list
Your tracking list is empty




NASA's NSSDC Master Catalog

Two Line Element Set (TLE):
1  5690U 70025LV  19176.29675333 -.00000001  00000-0  68047-4 0  9997
2  5690  99.9411 117.4473 0048005 210.2021 310.8522 13.50884662422504
Source of the keplerian elements: AFSPC